Regional Weather Roundup
Issued by NWS Newport/Morehead, NC

Current Version | Previous Version | Graphics & Text | Print | Product List | Glossary Off
Versions: 1 2 3 4 5 6 7 8 9 10 11 12 13 14 15 16 17 18 19 20 21 22 23 24 25 26 27 28 29 30 31 32 33 34 35 36 37 38 39 40 41 42 43 44 45 46 47 48 49 50

178
ASUS42 KMHX 192125
RWRMHX
WEATHER ROUNDUP FOR EASTERN NORTH CAROLINA
NATIONAL WEATHER SERVICE NEWPORT/MOREHEAD CITY NC
400 PM EST SUN NOV 19 2017

NOTE: "FAIR" INDICATES FEW OR NO CLOUDS BELOW 12,000 FEET
WITH NO SIGNIFICANT WEATHER AND/OR OBSTRUCTIONS TO VISIBILITY

NCZ015>017-031-032-045>047-102-103-192200-
NORTH COAST

CITY           SKY/WX    TMP DP  RH WIND       PRES   REMARKS
EDENTON        CLEAR     60  35  39 NW10G17   29.78R
ELIZABETH CITY CLEAR     59  34  39 W14       29.76R
KITTY HAWK     CLEAR     58  38  49 W5        29.73R
MANTEO         CLEAR     57  41  54 NW8       29.76R

$$

NCZ045>047-081-094-103-104-192200-
CENTRAL COAST

CITY           SKY/WX    TMP DP  RH WIND       PRES   REMARKS
FRISCO         CLEAR     61  46  57 NW7       29.75R

$$

NCZ095-097-098-100-101-192200-
SOUTHERN COAST

CITY           SKY/WX    TMP DP  RH WIND       PRES   REMARKS
BEAUFORT       CLEAR     61  39  44 NW16      29.78R
CEDAR ISLAND   NOT AVBL
JACKSONVILLE   NOT AVBL
PINEY ISLAND   NOT AVBL
WILMINGTON     SUNNY     63  33  32 NW15G24   29.81R


$$

NCZ011>013-027>030-043-044-078>080-089-090>093-098-192200-
COASTAL PLAIN

CITY           SKY/WX    TMP DP  RH WIND       PRES   REMARKS
AHOSKIE        CLEAR     55  30  39 W7        29.81R
CLINTON        SUNNY     60  32  34 W12G18    29.85R
ELIZABETHTOWN  NOT AVBL
GOLDSBORO      SUNNY     61  29  30 NW9G16    29.81R
GREENVILLE     CLEAR     59  32  36 NW7       29.84R
HAVELOCK       SUNNY     62  37  39 NW13      29.79R
KENANSVILLE    NOT AVBL
KINSTON        SUNNY     59  28  31 NW12G22   29.83R
NEW BERN       CLEAR     59  36  42 NW15      29.80R
RICHLANDS      SUNNY     60  32  34 W7        29.82R
ROCKY MOUNT    SUNNY     58  30  34 W13G21    29.82R
WASHINGTON     CLEAR     59  30  33 NW9G17    29.80R
WHITEVILLE     SUNNY     62  31  31 NW6       29.84R

$$

AMZ130-135-150-152-154-156-158-170-250-252-270-ANZ085-086-088-633-658-670-192200-
MARINE OBSERVATIONS

STATION/POSITION TIME  TEMP    WIND        PRES    WAVE   SWELL
                       AIR SEA DIR/SP/G            HT/PER HT/PER
                 (UTC) (F)     (DEG/KT/KT) (MB)    (FT/S) (FT/S)
CHESAPEAKE LIGHT NOT AVBL
64 E VA BEACH    2050   56 61  320/ 17/ 21 1006.7    8/ 7   3/ 8
DUCK             2100   59 61  330/ 16/ 18 1006.6
2 E DUCK         2100      62                N/A     3/ 5
OREGON INLET     2100   58 58  290/ 11/ 14 1007.2
13E OREGON INLT  2048      63                N/A     5/ 9   3/ 9
HATTERAS CG      2100   60 61  320/ 16/ 19 1007.4
DIAMOND BUOY     2110   61 65  320/ 14/ 19 1008.0
CAPE LOOKOUT     2100          330/ 12/ 17 1008.5
BEAUFORT LAB     2100   61 61  320/  9/ 15 1008.4
30 SE NEW RVR IN 2108   63 68  350/ 16/ 21 1009.0
30 SE NEW RVR IN 2100      68                N/A     7/ 8
27 SE WRIGHTSVLE 2108   63 68  310/ 16/ 25 1008.8
5 SE WRIGHTSVLE  2108   63 64  330/ 14/ 19 1008.9
225 S CAPE HAT   2050   76 77  240/ 25/ 33 1006.6   10/ 7   2/13
41 SE CHARLESTON 2110   65 74  320/ 16/ 19 1010.6

$$




USA.gov is the U.S. government's official web portal to all federal, state and local government web resources and services.